Regional Weather Roundup
Issued by NWS

Home | Current Version | Previous Version | Graphics & Text | Print | Product List | Glossary On
Versions: 1 2 3 4 5 6 7 8 9 10 11 12 13 14 15 16 17 18 19 20 21 22 23 24 25 26 27 28 29 30 31 32 33 34 35 36 37 38 39 40 41 42 43 44 45 46 47 48 49 50
000
ASUS43 KFSD 300102
RWRSD

WEATHER ROUNDUP FOR SOUTH DAKOTA
NATIONAL WEATHER SERVICE SIOUX FALLS SD
800 PM CDT MON SEP 29 2014

NOTE: "FAIR" INDICATES FEW OR NO CLOUDS BELOW 12,000 FEET WITH NO
SIGNIFICANT WEATHER AND/OR OBSTRUCTIONS TO VISIBILITY.


SDZ001>005-009-010-012>017-300200-
NORTHWEST AND NORTH CENTRAL SOUTH DAKOTA

CITY           SKY/WX    TMP DP  RH WIND       PRES   REMARKS
BUFFALO          N/A     51  49  92 SE8       29.86F
FAITH            N/A     54  54 100 E8        29.92F
MOBRIDGE       CLOUDY    58  50  75 E17G23    29.94F
$$

SDZ012>016-024>037-041>051-057-063-072>074-300200-
SOUTHWEST AND SOUTH CENTRAL SOUTH DAKOTA

CITY           SKY/WX    TMP DP  RH WIND       PRES   REMARKS
RAPID CTY ARPT CLOUDY    52  51  97 CALM      29.92F FOG
PIERRE         CLOUDY    65  56  72 E9        29.90F
CUSTER         FOG       51  50  96 NE5       29.93F VSB 1/2
ELLSWORTH AFB  CLOUDY    52  52 100 SE6       29.92S FOG
PHILIP         RAIN      58  55  90 VRB7      29.90R FOG
PINE RIDGE     LGT RAIN  60  58  92 NE3       29.86F
WINNER         FAIR      66  60  81 E12       29.88F
$$

SDZ004>011-016>023-039-040-300200-
NORTHEAST SOUTH DAKOTA

CITY           SKY/WX    TMP DP  RH WIND       PRES   REMARKS
ABERDEEN       PTCLDY    58  50  75 E12       30.01S
WATERTOWN      CLOUDY    54  50  86 E12G21    30.03S
SISSETON         N/A     53  49  86 SE8       30.05F
$$

SDZ017-020-022-023-036>040-048>070-300200-
SOUTHEAST SOUTH DAKOTA

CITY           SKY/WX    TMP DP  RH WIND       PRES   REMARKS
SIOUX FALLS    PTCLDY    62  56  80 E10       29.99F
HURON          PTCLDY    63  54  72 E12       29.96F
CHAMBERLAIN    PTCLDY    65  59  79 E12       29.90F
MITCHELL       CLEAR     64  57  78 E12       29.95S
YANKTON        CLEAR     68  61  77 E13       29.94R
$$

ABBREVIATIONS USED IN REMARKS
   TC - TEMPERATURE IN CELSIUS
  WCI - WIND CHILL INDEX
   HX - HEAT INDEX
  VSB - VISIBILITY



USA.gov is the U.S. government's official web portal to all federal, state and local government web resources and services.